This is the latest recevied weather packets stored in our database for station/object WW4HG. If no packets are shown the sender has not sent any weather packets the latest 10 day(s).
| Time | Temp. | Humidity | Pressure | Rain* | Wind** | Luminosity | Snow |
|---|---|---|---|---|---|---|---|
| 1777738047 | 14.44° C | 85% | 1012.3 hPa | 0 mm | - | 61 W/m² | - |
| 1777737745 | 13.89° C | 86% | 1012.6 hPa | 1.78 mm | - | 40 W/m² | - |
| 1777737444 | 13.89° C | 86% | 1012.6 hPa | 1.78 mm | - | 30 W/m² | - |
| 1777737140 | 13.89° C | 86% | 1012.6 hPa | 1.78 mm | - | 55 W/m² | - |
| 1777736836 | 13.89° C | 86% | 1012.6 hPa | 1.78 mm | - | 45 W/m² | - |
| 1777736218 | 13.89° C | 86% | 1013.3 hPa | 1.78 mm | - | 31 W/m² | - |
| 1777735915 | 13.89° C | 86% | 1013.3 hPa | 1.78 mm | - | 38 W/m² | - |
| 1777735612 | 13.89° C | 86% | 1012.9 hPa | 1.78 mm | - | 55 W/m² | - |
| 1777735309 | 13.89° C | 86% | 1012.9 hPa | 1.78 mm | - | 82 W/m² | - |
| 1777735007 | 13.89° C | 86% | 1012.9 hPa | 1.78 mm | - | 80 W/m² | - |
| 1777734704 | 13.89° C | 86% | 1012.9 hPa | 5.33 mm | - | 74 W/m² | - |
| 1777734401 | 13.89° C | 86% | 1012.6 hPa | 3.56 mm | - | 57 W/m² | - |
| 1777734097 | 13.89° C | 86% | 1012.6 hPa | 3.56 mm | - | 53 W/m² | - |
| 1777733794 | 13.89° C | 86% | 1012.9 hPa | 3.56 mm | - | 52 W/m² | - |
| 1777733491 | 13.89° C | 86% | 1012.9 hPa | 5.33 mm | - | 44 W/m² | - |
| 1777733187 | 13.89° C | 86% | 1013.3 hPa | 3.56 mm | - | 36 W/m² | - |
| 1777732884 | 13.89° C | 86% | 1013.6 hPa | 3.56 mm | - | 32 W/m² | - |
| 1777732580 | 13.89° C | 86% | 1013.3 hPa | 3.56 mm | - | 30 W/m² | - |
| 1777732278 | 13.89° C | 86% | 1013.3 hPa | 3.56 mm | - | 25 W/m² | - |
| 1777731975 | 13.89° C | 86% | 1012.9 hPa | 3.56 mm | - | 42 W/m² | - |
| 1777731672 | 13.89° C | 86% | 1012.9 hPa | 3.56 mm | - | 30 W/m² | - |
| 1777731369 | 13.89° C | 86% | 1012.9 hPa | 3.56 mm | - | 42 W/m² | - |
| 1777731067 | 13.89° C | 86% | 1012.9 hPa | 1.78 mm | - | 29 W/m² | - |
| 1777730765 | 13.89° C | 86% | 1012.9 hPa | 3.56 mm | - | 27 W/m² | - |
| 1777730461 | 13.89° C | 86% | 1012.6 hPa | 5.33 mm | - | 42 W/m² | - |
* Rain latest hour (hover to see other rain measurements)
** Current wind speed in m/s (hover to see current wind gust speed)